Total_Precipitation_Accumulation
0.00 0.00 0.01 0.01 0.01 0.01 0.02 0.04 0.07 0.09 0.06 0.08 0.20 0.43 0.60 0.72 0.93 0.93 0.89 0.96 1.01 1.08 1.23 1.46 1.66 1.91 2.14 2.35 2.58 2.82 3.01 3.10 2.92 2.67 2.41 2.19 2.00 1.91 1.72 1.63 1.56 1.52 1.51 1.59
0.01 0.03 0.02 0.01 0.01 0.02 0.04 0.06 0.08 0.11 0.09 0.12 0.28 0.48 0.71 0.72 0.79 0.84 0.74 0.75 0.84 1.07 1.19 1.40 1.53 1.62 1.84 2.11 2.46 2.69 2.95 2.98 2.73 2.44 2.24 2.14 2.08 1.82 1.58 1.57 1.55 1.57 1.65 1.64
0.01 0.02 0.02 0.01 0.02 0.03 0.06 0.06 0.08 0.09 0.10 0.18 0.29 0.64 0.86 0.70 0.68 0.73 0.73 0.75 0.85 1.15 1.50 1.59 1.47 1.48 1.59 1.81 2.00 2.15 2.23 2.20 2.05 2.03 2.05 2.04 2.03 1.79 1.72 1.79 1.83 1.81 1.83 1.81
0.01 0.01 0.02 0.03 0.04 0.04 0.07 0.06 0.05 0.06 0.11 0.27 0.30 0.68 1.05 0.85 0.68 0.77 0.83 0.77 1.04 1.29 1.25 1.28 1.35 1.41 1.51 1.65 1.82 1.94 1.90 1.75 1.62 1.66 1.83 1.89 1.85 1.80 1.94 2.17 2.09 1.87 1.72 1.59
0.03 0.03 0.03 0.04 0.04 0.04 0.06 0.05 0.06 0.07 0.10 0.22 0.28 0.48 0.91 0.91 0.93 0.84 0.80 0.87 1.15 1.14 1.01 1.00 1.12 1.21 1.24 1.38 1.50 1.63 1.68 1.58 1.52 1.53 1.59 1.70 1.73 1.71 1.71 1.71 1.67 1.56 1.39 1.21
0.04 0.04 0.04 0.03 0.03 0.03 0.05 0.06 0.11 0.15 0.21 0.40 0.31 0.37 0.74 0.91 0.76 0.64 0.71 0.76 0.90 0.91 0.85 0.88 0.90 0.94 1.01 1.10 1.11 1.09 1.18 1.24 1.27 1.30 1.33 1.37 1.34 1.29 1.22 1.14 1.12 1.06 0.97 0.80
0.09 0.09 0.07 0.04 0.04 0.05 0.05 0.09 0.32 0.58 0.70 0.69 0.35 0.45 0.84 0.73 0.55 0.57 0.71 0.70 0.64 0.62 0.63 0.71 0.71 0.73 0.79 0.84 0.82 0.83 0.89 1.00 1.01 0.96 0.99 1.01 0.99 0.93 0.86 0.85 0.82 0.79 0.73 0.63
0.16 0.21 0.11 0.06 0.06 0.06 0.07 0.08 0.25 0.43 0.48 0.52 0.43 0.73 1.13 0.76 0.58 0.62 0.63 0.57 0.50 0.50 0.50 0.58 0.65 0.68 0.67 0.65 0.66 0.69 0.73 0.78 0.75 0.71 0.72 0.72 0.75 0.73 0.68 0.68 0.60 0.58 0.58 0.59
0.11 0.10 0.07 0.06 0.09 0.09 0.08 0.06 0.10 0.21 0.23 0.32 0.50 0.76 0.82 0.53 0.47 0.54 0.52 0.48 0.50 0.50 0.47 0.47 0.48 0.52 0.50 0.47 0.47 0.52 0.62 0.66 0.68 0.67 0.65 0.60 0.60 0.57 0.52 0.49 0.47 0.45 0.47 0.51
0.04 0.06 0.07 0.06 0.07 0.09 0.08 0.08 0.11 0.16 0.22 0.31 0.42 0.66 0.73 0.54 0.44 0.33 0.27 0.21 0.22 0.24 0.24 0.23 0.24 0.24 0.24 0.28 0.34 0.42 0.46 0.47 0.50 0.52 0.54 0.53 0.50 0.44 0.39 0.35 0.36 0.36 0.37 0.41
0.04 0.04 0.06 0.07 0.09 0.10 0.10 0.08 0.08 0.08 0.11 0.22 0.40 0.52 0.36 0.33 0.30 0.26 0.21 0.14 0.13 0.11 0.13 0.17 0.18 0.21 0.23 0.27 0.35 0.42 0.44 0.44 0.46 0.45 0.46 0.45 0.43 0.41 0.35 0.30 0.30 0.31 0.33 0.37
0.03 0.03 0.04 0.09 0.12 0.11 0.10 0.07 0.07 0.09 0.09 0.12 0.22 0.31 0.17 0.19 0.19 0.18 0.17 0.15 0.15 0.16 0.15 0.17 0.17 0.24 0.28 0.28 0.30 0.35 0.39 0.44 0.53 0.61 0.69 0.70 0.62 0.53 0.44 0.35 0.30 0.30 0.32 0.35
0.03 0.03 0.06 0.19 0.28 0.18 0.11 0.09 0.09 0.09 0.07 0.11 0.19 0.29 0.14 0.10 0.10 0.15 0.33 0.40 0.29 0.18 0.12 0.11 0.14 0.21 0.26 0.30 0.32 0.36 0.39 0.43 0.52 0.67 0.91 1.02 0.94 0.80 0.62 0.43 0.29 0.25 0.25 0.28
0.04 0.03 0.05 0.18 0.27 0.22 0.15 0.10 0.08 0.07 0.10 0.11 0.14 0.26 0.18 0.10 0.07 0.06 0.09 0.12 0.14 0.13 0.09 0.08 0.11 0.17 0.22 0.29 0.37 0.42 0.45 0.44 0.50 0.62 0.78 0.85 0.78 0.68 0.55 0.37 0.24 0.19 0.19 0.22
0.04 0.03 0.03 0.05 0.09 0.10 0.12 0.11 0.09 0.08 0.07 0.13 0.12 0.15 0.11 0.06 0.06 0.07 0.08 0.09 0.11 0.13 0.10 0.09 0.11 0.16 0.20 0.24 0.31 0.32 0.28 0.23 0.28 0.40 0.46 0.51 0.46 0.35 0.30 0.25 0.21 0.19 0.20 0.22
0.05 0.04 0.03 0.04 0.08 0.10 0.10 0.11 0.09 0.06 0.04 0.04 0.05 0.06 0.04 0.05 0.11 0.15 0.11 0.09 0.09 0.09 0.08 0.08 0.12 0.17 0.18 0.17 0.17 0.13 0.12 0.13 0.17 0.24 0.28 0.34 0.36 0.29 0.24 0.20 0.16 0.16 0.19 0.23
0.07 0.06 0.04 0.04 0.09 0.08 0.12 0.12 0.09 0.05 0.04 0.04 0.05 0.06 0.05 0.05 0.07 0.11 0.10 0.07 0.06 0.05 0.04 0.04 0.07 0.09 0.07 0.06 0.06 0.07 0.08 0.12 0.17 0.23 0.27 0.35 0.37 0.34 0.29 0.22 0.20 0.20 0.22 0.24
0.11 0.11 0.06 0.05 0.10 0.17 0.13 0.09 0.08 0.06 0.06 0.07 0.07 0.06 0.08 0.09 0.10 0.11 0.13 0.10 0.07 0.04 0.03 0.02 0.02 0.02 0.02 0.02 0.03 0.05 0.07 0.12 0.17 0.23 0.27 0.33 0.37 0.35 0.32 0.32 0.34 0.35 0.33 0.31
0.12 0.13 0.11 0.10 0.12 0.14 0.11 0.09 0.11 0.11 0.10 0.08 0.10 0.11 0.12 0.14 0.14 0.13 0.11 0.07 0.04 0.04 0.03 0.02 0.02 0.02 0.02 0.03 0.04 0.07 0.11 0.13 0.17 0.23 0.31 0.35 0.39 0.39 0.38 0.39 0.40 0.42 0.42 0.37
0.10 0.14 0.14 0.13 0.16 0.18 0.14 0.13 0.15 0.14 0.25 0.21 0.18 0.17 0.13 0.10 0.12 0.09 0.05 0.04 0.04 0.03 0.03 0.03 0.03 0.02 0.02 0.04 0.08 0.13 0.14 0.16 0.20 0.25 0.32 0.37 0.42 0.46 0.46 0.48 0.48 0.47 0.50 0.44
0.15 0.17 0.18 0.19 0.20 0.18 0.17 0.17 0.16 0.28 0.34 0.18 0.11 0.11 0.10 0.11 0.13 0.09 0.06 0.05 0.04 0.04 0.04 0.04 0.04 0.05 0.07 0.11 0.16 0.18 0.18 0.21 0.22 0.24 0.31 0.41 0.46 0.52 0.55 0.60 0.61 0.61 0.60 0.58
0.16 0.22 0.23 0.25 0.33 0.32 0.21 0.20 0.25 0.26 0.18 0.17 0.16 0.14 0.14 0.13 0.09 0.07 0.05 0.04 0.04 0.04 0.05 0.05 0.06 0.07 0.09 0.13 0.18 0.21 0.21 0.21 0.24 0.30 0.38 0.44 0.49 0.46 0.49 0.64 0.70 0.73 0.76 0.71
0.13 0.19 0.25 0.31 0.34 0.28 0.23 0.25 0.28 0.24 0.20 0.18 0.16 0.12 0.10 0.10 0.08 0.06 0.05 0.04 0.04 0.05 0.05 0.06 0.07 0.10 0.13 0.16 0.22 0.28 0.28 0.32 0.34 0.38 0.44 0.49 0.50 0.53 0.62 0.71 0.76 0.80 0.84 0.82
0.17 0.19 0.25 0.35 0.29 0.27 0.27 0.24 0.21 0.18 0.18 0.16 0.13 0.11 0.10 0.10 0.10 0.09 0.09 0.07 0.07 0.07 0.07 0.08 0.09 0.12 0.16 0.19 0.26 0.35 0.41 0.46 0.48 0.48 0.49 0.52 0.57 0.58 0.62 0.72 0.78 0.82 0.86 0.91
0.16 0.15 0.20 0.32 0.28 0.21 0.23 0.21 0.20 0.19 0.17 0.13 0.12 0.11 0.10 0.10 0.10 0.09 0.09 0.09 0.09 0.09 0.09 0.11 0.16 0.21 0.24 0.29 0.35 0.40 0.46 0.53 0.57 0.57 0.56 0.55 0.57 0.63 0.69 0.75 0.79 0.77 0.83 0.82
0.13 0.16 0.22 0.29 0.30 0.29 0.27 0.23 0.20 0.20 0.19 0.14 0.12 0.11 0.10 0.10 0.09 0.08 0.08 0.09 0.10 0.11 0.14 0.18 0.21 0.25 0.28 0.33 0.41 0.44 0.51 0.60 0.66 0.69 0.68 0.64 0.60 0.65 0.71 0.75 0.72 0.63 0.59 0.55